Time,TemperatureF,DewpointF,PressureIn,WindDirection,WindDirectionDegrees,WindSpeedMPH,WindSpeedGustMPH,Humidity,HourlyPrecipIn,Conditions,Clouds,dailyrainin,SoftwareType,DateUTC
2013-03-10 00:01:00,58.3,38.1,29.62,SSW,202,1.6,1.6,47,0.00,,,0.00,meteobridge,2013-03-09 22:01:00,
2013-03-10 00:06:00,58.3,38.1,29.62,East,90,1.1,1.1,47,0.00,,,0.00,meteobridge,2013-03-09 22:06:00,
2013-03-10 00:11:00,58.5,38.3,29.62,SW,225,2.2,2.5,47,0.00,,,0.00,meteobridge,2013-03-09 22:11:00,
2013-03-10 00:16:00,58.5,38.3,29.62,SSW,202,0.0,2.2,47,0.00,,,0.00,meteobridge,2013-03-09 22:16:00,
2013-03-10 00:21:00,58.5,38.3,29.62,ESE,112,0.0,3.1,47,0.00,,,0.00,meteobridge,2013-03-09 22:21:00,
2013-03-10 00:26:00,58.3,38.1,29.62,ENE,68,0.0,1.1,47,0.00,,,0.00,meteobridge,2013-03-09 22:26:00,
2013-03-10 00:31:00,58.3,38.7,29.62,SE,135,1.1,4.7,48,0.00,,,0.00,meteobridge,2013-03-09 22:31:00,
2013-03-10 00:36:00,58.3,38.7,29.62,SW,225,1.1,3.1,48,0.00,,,0.00,meteobridge,2013-03-09 22:36:00,
2013-03-10 00:41:00,58.3,38.7,29.62,South,180,0.9,2.2,48,0.00,,,0.00,meteobridge,2013-03-09 22:41:00,
2013-03-10 00:46:00,57.9,38.3,29.62,SE,135,2.2,2.2,48,0.00,,,0.00,meteobridge,2013-03-09 22:46:00,
2013-03-10 00:51:00,57.9,38.3,29.62,SSE,158,3.4,3.4,48,0.00,,,0.00,meteobridge,2013-03-09 22:51:00,
2013-03-10 00:56:00,57.9,38.3,29.62,SSE,158,1.3,1.3,48,0.00,,,0.00,meteobridge,2013-03-09 22:56:00,
2013-03-10 01:01:00,57.7,38.3,29.62,SSE,158,0.9,2.9,48,0.00,,,0.00,meteobridge,2013-03-09 23:01:00,
2013-03-10 01:06:00,57.6,38.7,29.62,SE,135,2.0,2.0,49,0.00,,,0.00,meteobridge,2013-03-09 23:06:00,
2013-03-10 01:12:00,57.6,38.7,29.59,SSE,158,2.9,2.9,49,0.00,,,0.00,meteobridge,2013-03-09 23:12:00,
2013-03-10 01:16:00,57.6,39.0,29.59,SSE,158,2.5,4.0,50,0.00,,,0.00,meteobridge,2013-03-09 23:16:00,
2013-03-10 01:21:00,57.4,38.8,29.59,South,180,2.5,2.5,50,0.00,,,0.00,meteobridge,2013-03-09 23:21:00,
2013-03-10 01:26:00,57.4,38.8,29.59,SSE,158,2.2,2.7,50,0.00,,,0.00,meteobridge,2013-03-09 23:26:00,
2013-03-10 01:31:00,57.4,38.8,29.59,SSE,158,1.6,2.7,50,0.00,,,0.00,meteobridge,2013-03-09 23:31:00,
2013-03-10 01:36:00,57.4,39.4,29.59,SSE,158,4.9,4.9,51,0.00,,,0.00,meteobridge,2013-03-09 23:36:00,
2013-03-10 01:42:00,57.4,39.4,29.62,South,180,4.0,4.0,51,0.00,,,0.00,meteobridge,2013-03-09 23:42:00,
2013-03-10 01:47:00,57.2,39.2,29.62,SSE,158,1.3,2.7,51,0.00,,,0.00,meteobridge,2013-03-09 23:47:00,
2013-03-10 01:52:00,57.2,39.2,29.62,SSE,158,2.0,2.9,51,0.00,,,0.00,meteobridge,2013-03-09 23:52:00,
2013-03-10 01:57:00,57.0,39.0,29.62,South,180,1.3,2.7,51,0.00,,,0.00,meteobridge,2013-03-09 23:57:00,
2013-03-10 02:02:00,56.8,39.0,29.62,South,180,0.0,1.6,51,0.00,,,0.00,meteobridge,2013-03-10 00:02:00,
2013-03-10 02:07:00,56.7,38.8,29.62,SSE,158,0.0,0.0,51,0.00,,,0.00,meteobridge,2013-03-10 00:07:00,
2013-03-10 02:12:00,56.5,39.0,29.62,SSE,158,1.3,4.0,52,0.00,,,0.00,meteobridge,2013-03-10 00:12:00,
2013-03-10 02:17:00,56.3,38.8,29.62,SSE,158,0.0,1.1,52,0.00,,,0.00,meteobridge,2013-03-10 00:17:00,
2013-03-10 02:22:00,56.3,38.8,29.62,SSE,158,0.0,0.0,52,0.00,,,0.00,meteobridge,2013-03-10 00:22:00,
2013-03-10 02:28:00,55.9,38.7,29.59,SSE,158,0.0,0.0,52,0.00,,,0.00,meteobridge,2013-03-10 00:28:00,
2013-03-10 02:33:00,55.9,39.0,29.59,South,180,0.0,1.3,53,0.00,,,0.00,meteobridge,2013-03-10 00:33:00,
2013-03-10 02:38:00,55.9,39.0,29.59,SSE,158,0.0,2.5,53,0.00,,,0.00,meteobridge,2013-03-10 00:38:00,
2013-03-10 02:43:00,55.9,39.0,29.59,SSE,158,0.9,2.7,53,0.00,,,0.00,meteobridge,2013-03-10 00:43:00,
2013-03-10 02:48:00,55.9,39.0,29.59,SSE,158,0.0,0.0,53,0.00,,,0.00,meteobridge,2013-03-10 00:48:00,
2013-03-10 02:53:00,55.6,38.7,29.59,SSE,158,0.0,0.0,53,0.00,,,0.00,meteobridge,2013-03-10 00:53:00,
2013-03-10 02:59:00,55.6,38.7,29.59,SSE,158,0.0,1.1,53,0.00,,,0.00,meteobridge,2013-03-10 00:59:00,
2013-03-10 03:04:00,55.4,38.7,29.59,SSE,158,0.0,0.0,53,0.00,,,0.00,meteobridge,2013-03-10 01:04:00,
2013-03-10 03:09:00,55.8,39.4,29.59,NNE,22,3.1,3.1,54,0.00,,,0.00,meteobridge,2013-03-10 01:09:00,
2013-03-10 03:14:00,55.8,38.8,29.59,North,0,0.0,2.9,53,0.00,,,0.00,meteobridge,2013-03-10 01:14:00,
2013-03-10 03:19:00,55.4,38.7,29.59,NNE,22,0.0,0.0,53,0.00,,,0.00,meteobridge,2013-03-10 01:19:00,
2013-03-10 03:24:00,55.2,38.5,29.59,NNE,22,0.0,0.0,53,0.00,,,0.00,meteobridge,2013-03-10 01:24:00,
2013-03-10 03:29:00,55.0,38.3,29.59,NNE,22,0.0,0.0,53,0.00,,,0.00,meteobridge,2013-03-10 01:29:00,
2013-03-10 03:34:00,54.7,37.9,29.59,NNE,22,0.0,0.0,53,0.00,,,0.00,meteobridge,2013-03-10 01:34:00,
2013-03-10 03:39:00,54.9,38.5,29.59,North,0,1.6,1.6,54,0.00,,,0.00,meteobridge,2013-03-10 01:39:00,
2013-03-10 03:44:00,54.9,38.1,29.59,East,90,0.0,1.1,53,0.00,,,0.00,meteobridge,2013-03-10 01:44:00,
2013-03-10 03:49:00,54.7,37.9,29.59,SSE,158,1.1,1.1,53,0.00,,,0.00,meteobridge,2013-03-10 01:49:00,
2013-03-10 03:54:00,54.9,38.5,29.59,SE,135,1.6,1.6,54,0.00,,,0.00,meteobridge,2013-03-10 01:54:00,
2013-03-10 03:59:00,54.9,38.5,29.59,SE,135,1.1,1.1,54,0.00,,,0.00,meteobridge,2013-03-10 01:59:00,
2013-03-10 04:05:00,55.6,39.7,29.59,ENE,68,0.0,2.0,55,0.00,,,0.00,meteobridge,2013-03-10 02:05:00,
2013-03-10 04:09:00,55.9,40.1,29.59,ENE,68,0.9,1.6,55,0.00,,,0.00,meteobridge,2013-03-10 02:09:00,
2013-03-10 04:15:00,55.9,39.6,29.59,ESE,112,0.0,1.3,54,0.00,,,0.00,meteobridge,2013-03-10 02:15:00,
2013-03-10 04:20:00,55.9,39.6,29.59,SE,135,0.0,2.0,54,0.00,,,0.00,meteobridge,2013-03-10 02:20:00,
2013-03-10 04:25:00,55.9,39.0,29.59,SE,135,0.0,0.0,53,0.00,,,0.00,meteobridge,2013-03-10 02:25:00,
2013-03-10 04:30:00,55.9,39.0,29.59,ESE,112,1.1,2.9,53,0.00,,,0.00,meteobridge,2013-03-10 02:30:00,
2013-03-10 04:35:00,55.9,39.0,29.59,NNW,338,1.1,2.9,53,0.00,,,0.00,meteobridge,2013-03-10 02:35:00,
2013-03-10 04:40:00,56.1,39.2,29.59,NNE,22,1.6,-999.0,53,0.00,,,0.00,meteobridge,2013-03-10 02:40:00,
2013-03-10 04:45:00,56.7,38.8,29.59,SE,135,1.1,2.2,51,0.00,,,0.00,meteobridge,2013-03-10 02:45:00,
2013-03-10 04:50:00,56.8,38.5,29.59,NNE,22,1.1,2.5,50,0.00,,,0.00,meteobridge,2013-03-10 02:50:00,
2013-03-10 04:55:00,56.8,38.5,29.59,NNE,22,2.2,3.4,50,0.00,,,0.00,meteobridge,2013-03-10 02:55:00,
2013-03-10 05:00:00,56.8,38.5,29.59,North,0,2.0,2.0,50,0.00,,,0.00,meteobridge,2013-03-10 03:00:00,
2013-03-10 05:05:00,56.8,38.5,29.59,North,0,1.3,2.0,50,0.00,,,0.00,meteobridge,2013-03-10 03:05:00,
2013-03-10 05:10:00,56.8,38.5,29.59,NE,45,2.2,2.2,50,0.00,,,0.00,meteobridge,2013-03-10 03:10:00,
2013-03-10 05:15:00,56.7,38.3,29.59,ENE,68,0.0,2.0,50,0.00,,,0.00,meteobridge,2013-03-10 03:15:00,
2013-03-10 05:20:00,56.7,38.3,29.59,East,90,1.1,2.5,50,0.00,,,0.00,meteobridge,2013-03-10 03:20:00,
2013-03-10 05:26:00,56.7,38.3,29.59,East,90,1.3,1.3,50,0.00,,,0.00,meteobridge,2013-03-10 03:26:00,
2013-03-10 05:31:00,56.7,38.3,29.59,SSE,158,2.9,4.0,50,0.00,,,0.00,meteobridge,2013-03-10 03:31:00,
2013-03-10 05:36:00,56.7,38.3,29.59,SSW,202,2.2,3.6,50,0.00,,,0.00,meteobridge,2013-03-10 03:36:00,
2013-03-10 05:42:00,56.7,38.3,29.59,SSE,158,3.1,3.4,50,0.00,,,0.00,meteobridge,2013-03-10 03:42:00,
2013-03-10 05:47:00,56.8,38.5,29.59,SSE,158,1.1,3.4,50,0.00,,,0.00,meteobridge,2013-03-10 03:47:00,
2013-03-10 05:53:00,56.8,38.5,29.59,SSE,158,2.0,3.4,50,0.00,,,0.00,meteobridge,2013-03-10 03:53:00,
2013-03-10 05:58:00,56.8,38.5,29.59,South,180,1.3,2.0,50,0.00,,,0.00,meteobridge,2013-03-10 03:58:00,
2013-03-10 06:03:00,56.7,38.3,29.59,South,180,3.4,3.4,50,0.00,,,0.00,meteobridge,2013-03-10 04:03:00,
2013-03-10 06:08:00,56.7,38.3,29.59,NNE,22,2.0,2.7,50,0.00,,,0.00,meteobridge,2013-03-10 04:08:00,
2013-03-10 06:13:00,56.7,38.3,29.59,East,90,0.9,1.1,50,0.00,,,0.00,meteobridge,2013-03-10 04:13:00,
2013-03-10 06:18:00,56.7,38.3,29.59,SE,135,0.0,2.7,50,0.00,,,0.00,meteobridge,2013-03-10 04:18:00,
2013-03-10 06:23:00,56.3,37.9,29.59,SSE,158,2.0,2.9,50,0.00,,,0.00,meteobridge,2013-03-10 04:23:00,
2013-03-10 06:29:00,56.3,37.9,29.59,SSE,158,0.0,0.0,50,0.00,,,0.00,meteobridge,2013-03-10 04:29:00,
2013-03-10 06:34:00,56.3,37.9,29.59,SSE,158,0.0,1.1,50,0.00,,,0.00,meteobridge,2013-03-10 04:34:00,
2013-03-10 06:39:00,56.1,37.8,29.59,SSE,158,2.5,2.5,50,0.00,,,0.00,meteobridge,2013-03-10 04:39:00,
2013-03-10 06:44:00,56.1,38.3,29.59,SSE,158,1.6,1.6,51,0.00,,,0.00,meteobridge,2013-03-10 04:44:00,
2013-03-10 06:49:00,56.1,38.3,29.59,North,0,1.6,2.0,51,0.00,,,0.00,meteobridge,2013-03-10 04:49:00,
2013-03-10 06:54:00,55.9,38.1,29.59,North,0,0.0,0.0,51,0.00,,,0.00,meteobridge,2013-03-10 04:54:00,
2013-03-10 07:00:00,55.8,37.9,29.59,North,0,0.0,0.0,51,0.00,,,0.00,meteobridge,2013-03-10 05:00:00,
2013-03-10 07:01:00,55.8,37.9,29.59,NNE,22,0.0,0.0,51,0.00,,,0.00,meteobridge,2013-03-10 05:01:00,
2013-03-10 07:06:00,55.6,38.3,29.59,SSE,158,1.6,2.0,52,0.00,,,0.00,meteobridge,2013-03-10 05:06:00,
2013-03-10 07:11:00,55.6,38.3,29.59,SSE,158,1.1,1.3,52,0.00,,,0.00,meteobridge,2013-03-10 05:11:00,
2013-03-10 07:16:00,55.6,38.7,29.59,SSE,158,0.0,0.0,53,0.00,,,0.00,meteobridge,2013-03-10 05:16:00,
2013-03-10 07:21:00,55.8,38.8,29.59,SSE,158,0.0,1.1,53,0.00,,,0.00,meteobridge,2013-03-10 05:21:00,
2013-03-10 07:26:00,55.9,39.0,29.59,SSE,158,1.6,1.6,53,0.00,,,0.00,meteobridge,2013-03-10 05:26:00,
2013-03-10 07:31:00,56.1,39.2,29.62,SSE,158,1.1,2.0,53,0.00,,,0.00,meteobridge,2013-03-10 05:31:00,
2013-03-10 07:36:00,56.5,40.1,29.62,SSE,158,2.7,3.1,54,0.00,,,0.00,meteobridge,2013-03-10 05:36:00,
2013-03-10 07:41:00,56.8,39.9,29.62,SE,135,0.0,0.9,53,0.00,,,0.00,meteobridge,2013-03-10 05:41:00,
2013-03-10 07:46:00,57.2,40.3,29.62,SE,135,1.6,1.6,53,0.00,,,0.00,meteobridge,2013-03-10 05:46:00,
2013-03-10 07:51:00,57.9,40.5,29.62,SSE,158,0.0,2.9,52,0.00,,,0.00,meteobridge,2013-03-10 05:51:00,
2013-03-10 07:57:00,58.3,39.7,29.62,SE,135,0.0,1.3,50,0.00,,,0.00,meteobridge,2013-03-10 05:57:00,
2013-03-10 08:02:00,58.8,39.7,29.62,South,180,4.3,4.3,49,0.00,,,0.00,meteobridge,2013-03-10 06:02:00,
2013-03-10 08:08:00,58.8,38.7,29.62,SSE,158,1.3,3.8,47,0.00,,,0.00,meteobridge,2013-03-10 06:08:00,
2013-03-10 08:13:00,59.4,39.2,29.62,SE,135,1.3,2.7,47,0.00,,,0.00,meteobridge,2013-03-10 06:13:00,
2013-03-10 08:18:00,59.5,39.4,29.62,ESE,112,1.6,2.0,47,0.00,,,0.00,meteobridge,2013-03-10 06:18:00,
2013-03-10 08:23:00,60.1,39.2,29.62,SSE,158,1.3,2.9,46,0.00,,,0.00,meteobridge,2013-03-10 06:23:00,
2013-03-10 08:28:00,60.1,38.1,29.62,SSE,158,1.1,2.5,44,0.00,,,0.00,meteobridge,2013-03-10 06:28:00,
2013-03-10 08:33:00,60.4,38.5,29.62,SW,225,1.1,3.6,44,0.00,,,0.00,meteobridge,2013-03-10 06:33:00,
2013-03-10 08:38:00,60.8,38.8,29.62,South,180,0.0,2.0,44,0.00,,,0.00,meteobridge,2013-03-10 06:38:00,
2013-03-10 08:43:00,61.2,38.5,29.62,South,180,1.1,1.6,43,0.00,,,0.00,meteobridge,2013-03-10 06:43:00,
2013-03-10 08:48:00,63.0,40.1,29.62,SSE,158,2.0,2.0,43,0.00,,,0.00,meteobridge,2013-03-10 06:48:00,
2013-03-10 08:53:00,63.7,39.6,29.62,ESE,112,1.1,1.6,41,0.00,,,0.00,meteobridge,2013-03-10 06:53:00,
2013-03-10 08:58:00,63.1,37.8,29.62,WSW,248,1.6,3.6,39,0.00,,,0.00,meteobridge,2013-03-10 06:58:00,
2013-03-10 09:03:00,64.4,39.0,29.62,ESE,112,3.8,3.8,39,0.00,,,0.00,meteobridge,2013-03-10 07:03:00,
2013-03-10 09:09:00,65.5,38.5,29.62,NNE,22,1.6,2.5,37,0.00,,,0.00,meteobridge,2013-03-10 07:09:00,
2013-03-10 09:14:00,65.5,37.2,29.62,WNW,292,2.7,2.7,35,0.00,,,0.00,meteobridge,2013-03-10 07:14:00,
2013-03-10 09:19:00,64.9,36.7,29.62,WNW,292,3.1,3.1,35,0.00,,,0.00,meteobridge,2013-03-10 07:19:00,
2013-03-10 09:24:00,64.4,36.1,29.62,ESE,112,1.3,1.6,35,0.00,,,0.00,meteobridge,2013-03-10 07:24:00,
2013-03-10 09:30:00,64.9,36.0,29.62,SE,135,0.9,3.6,34,0.00,,,0.00,meteobridge,2013-03-10 07:30:00,
2013-03-10 09:35:00,66.2,37.0,29.62,South,180,0.0,3.4,34,0.00,,,0.00,meteobridge,2013-03-10 07:35:00,
2013-03-10 09:40:00,65.8,36.0,29.62,SSE,158,1.3,3.1,33,0.00,,,0.00,meteobridge,2013-03-10 07:40:00,
2013-03-10 09:45:00,66.4,36.5,29.65,South,180,2.0,3.1,33,0.00,,,0.00,meteobridge,2013-03-10 07:45:00,
2013-03-10 09:50:00,66.6,36.7,29.65,SE,135,2.7,5.8,33,0.00,,,0.00,meteobridge,2013-03-10 07:50:00,
2013-03-10 09:55:00,66.9,36.1,29.65,SE,135,2.2,3.1,32,0.00,,,0.00,meteobridge,2013-03-10 07:55:00,
2013-03-10 10:00:00,67.1,36.3,29.65,South,180,0.0,2.0,32,0.00,,,0.00,meteobridge,2013-03-10 08:00:00,
2013-03-10 10:05:00,66.6,35.1,29.65,WSW,248,1.3,2.2,31,0.00,,,0.00,meteobridge,2013-03-10 08:05:00,
2013-03-10 10:12:00,66.6,35.8,29.65,SSE,158,1.3,1.6,32,0.00,,,0.00,meteobridge,2013-03-10 08:12:00,
2013-03-10 10:17:00,66.9,36.1,29.62,SSE,158,2.0,3.6,32,0.00,,,0.00,meteobridge,2013-03-10 08:17:00,
2013-03-10 10:22:00,67.6,36.0,29.62,SSE,158,2.9,2.9,31,0.00,,,0.00,meteobridge,2013-03-10 08:22:00,
2013-03-10 10:27:00,68.5,36.0,29.62,NNE,22,1.1,2.9,30,0.00,,,0.00,meteobridge,2013-03-10 08:27:00,
2013-03-10 10:32:00,69.4,36.7,29.62,ESE,112,1.6,2.0,30,0.00,,,0.00,meteobridge,2013-03-10 08:32:00,
2013-03-10 10:37:00,68.9,34.5,29.62,South,180,2.9,2.9,28,0.00,,,0.00,meteobridge,2013-03-10 08:37:00,
2013-03-10 10:42:00,70.2,33.8,29.62,SSE,158,2.0,3.6,26,0.00,,,0.00,meteobridge,2013-03-10 08:42:00,
2013-03-10 10:47:00,71.4,34.7,29.62,NNE,22,0.0,2.7,26,0.00,,,0.00,meteobridge,2013-03-10 08:47:00,
2013-03-10 10:52:00,71.6,32.9,29.62,East,90,1.1,2.2,24,0.00,,,0.00,meteobridge,2013-03-10 08:52:00,
2013-03-10 10:57:00,70.3,31.8,29.62,SSE,158,3.1,3.8,24,0.00,,,0.00,meteobridge,2013-03-10 08:57:00,
2013-03-10 11:02:00,69.6,31.3,29.62,ESE,112,2.0,2.2,24,0.00,,,0.00,meteobridge,2013-03-10 09:02:00,
2013-03-10 11:07:00,70.0,31.6,29.62,SE,135,1.1,2.0,24,0.00,,,0.00,meteobridge,2013-03-10 09:07:00,
2013-03-10 11:12:00,70.2,31.8,29.62,South,180,2.2,4.0,24,0.00,,,0.00,meteobridge,2013-03-10 09:12:00,
2013-03-10 11:17:00,69.6,31.3,29.62,SSE,158,3.1,3.1,24,0.00,,,0.00,meteobridge,2013-03-10 09:17:00,
2013-03-10 11:22:00,70.2,31.8,29.62,SE,135,1.6,2.5,24,0.00,,,0.00,meteobridge,2013-03-10 09:22:00,
2013-03-10 11:27:00,69.1,30.7,29.62,SW,225,2.5,3.4,24,0.00,,,0.00,meteobridge,2013-03-10 09:27:00,
2013-03-10 11:33:00,69.6,32.4,29.62,East,90,2.0,2.7,25,0.00,,,0.00,meteobridge,2013-03-10 09:33:00,
2013-03-10 11:38:00,71.4,32.7,29.62,SSE,158,2.0,2.5,24,0.00,,,0.00,meteobridge,2013-03-10 09:38:00,
2013-03-10 11:43:00,71.8,32.0,29.62,ESE,112,1.1,3.8,23,0.00,,,0.00,meteobridge,2013-03-10 09:43:00,
2013-03-10 11:49:00,72.0,31.1,29.62,South,180,1.6,3.1,22,0.00,,,0.00,meteobridge,2013-03-10 09:49:00,
2013-03-10 11:54:00,72.9,31.8,29.62,SE,135,2.2,2.2,22,0.00,,,0.00,meteobridge,2013-03-10 09:54:00,
2013-03-10 11:59:00,73.2,32.2,29.62,WNW,292,1.6,2.7,22,0.00,,,0.00,meteobridge,2013-03-10 09:59:00,
2013-03-10 12:04:00,72.0,31.1,29.62,SE,135,2.5,2.5,22,0.00,,,0.00,meteobridge,2013-03-10 10:04:00,
2013-03-10 12:09:00,72.1,31.3,29.62,SSE,158,3.8,3.8,22,0.00,,,0.00,meteobridge,2013-03-10 10:09:00,
2013-03-10 12:14:00,72.3,31.5,29.62,East,90,1.3,2.7,22,0.00,,,0.00,meteobridge,2013-03-10 10:14:00,
2013-03-10 12:19:00,72.0,31.1,29.62,NNW,338,2.7,4.3,22,0.00,,,0.00,meteobridge,2013-03-10 10:19:00,
2013-03-10 12:24:00,72.0,31.1,29.62,ESE,112,2.7,3.1,22,0.00,,,0.00,meteobridge,2013-03-10 10:24:00,
2013-03-10 12:29:00,71.4,30.6,29.62,NNW,338,2.7,4.7,22,0.00,,,0.00,meteobridge,2013-03-10 10:29:00,
2013-03-10 12:34:00,71.6,30.7,29.62,South,180,3.1,4.9,22,0.00,,,0.00,meteobridge,2013-03-10 10:34:00,
2013-03-10 12:39:00,72.7,31.6,29.62,ESE,112,1.6,4.9,22,0.00,,,0.00,meteobridge,2013-03-10 10:39:00,
2013-03-10 12:44:00,72.7,31.6,29.62,SE,135,3.4,4.9,22,0.00,,,0.00,meteobridge,2013-03-10 10:44:00,
2013-03-10 12:49:00,72.1,31.3,29.62,East,90,2.2,2.9,22,0.00,,,0.00,meteobridge,2013-03-10 10:49:00,
2013-03-10 12:54:00,72.1,31.3,29.62,NE,45,4.9,4.9,22,0.00,,,0.00,meteobridge,2013-03-10 10:54:00,
2013-03-10 12:59:00,72.5,31.5,29.62,NNW,338,1.3,3.4,22,0.00,,,0.00,meteobridge,2013-03-10 10:59:00,
2013-03-10 13:04:00,73.2,32.2,29.62,SSE,158,2.7,5.6,22,0.00,,,0.00,meteobridge,2013-03-10 11:04:00,
2013-03-10 13:09:00,73.2,30.9,29.62,SE,135,3.4,4.9,21,0.00,,,0.00,meteobridge,2013-03-10 11:09:00,
2013-03-10 13:14:00,72.3,30.2,29.62,SW,225,2.5,3.6,21,0.00,,,0.00,meteobridge,2013-03-10 11:14:00,
2013-03-10 13:19:00,72.1,30.0,29.62,WNW,292,3.4,4.3,21,0.00,,,0.00,meteobridge,2013-03-10 11:19:00,
2013-03-10 13:24:00,72.7,30.6,29.62,NW,315,3.1,3.1,21,0.00,,,0.00,meteobridge,2013-03-10 11:24:00,
2013-03-10 13:29:00,72.0,30.0,29.59,East,90,1.3,3.4,21,0.00,,,0.00,meteobridge,2013-03-10 11:29:00,
2013-03-10 13:34:00,72.0,30.0,29.59,NE,45,1.1,4.5,21,0.00,,,0.00,meteobridge,2013-03-10 11:34:00,
2013-03-10 13:39:00,72.3,30.2,29.59,South,180,3.4,3.6,21,0.00,,,0.00,meteobridge,2013-03-10 11:39:00,
2013-03-10 13:44:00,72.5,30.4,29.59,East,90,2.5,4.3,21,0.00,,,0.00,meteobridge,2013-03-10 11:44:00,
2013-03-10 13:49:00,72.9,28.2,29.59,South,180,1.3,3.4,19,0.00,,,0.00,meteobridge,2013-03-10 11:49:00,
2013-03-10 13:54:00,73.0,28.4,29.59,ESE,112,1.1,2.9,19,0.00,,,0.00,meteobridge,2013-03-10 11:54:00,
2013-03-10 13:59:00,73.4,27.3,29.56,NNW,338,2.5,3.8,18,0.00,,,0.00,meteobridge,2013-03-10 11:59:00,
2013-03-10 14:05:00,72.1,27.7,29.56,SSE,158,1.3,2.2,19,0.00,,,0.00,meteobridge,2013-03-10 12:05:00,
2013-03-10 14:10:00,70.0,25.9,29.56,SW,225,2.9,2.9,19,0.00,,,0.00,meteobridge,2013-03-10 12:10:00,
2013-03-10 14:15:00,69.1,28.8,29.59,SSE,158,2.0,2.7,22,0.00,,,0.00,meteobridge,2013-03-10 12:15:00,
2013-03-10 14:21:00,68.7,28.4,29.59,East,90,2.9,2.9,22,0.00,,,0.00,meteobridge,2013-03-10 12:21:00,
2013-03-10 14:26:00,67.3,28.2,29.59,South,180,0.9,3.1,23,0.00,,,0.00,meteobridge,2013-03-10 12:26:00,
2013-03-10 14:31:00,67.3,29.3,29.59,NW,315,2.0,3.8,24,0.00,,,0.00,meteobridge,2013-03-10 12:31:00,
2013-03-10 14:36:00,67.1,29.1,29.59,NNW,338,0.9,2.9,24,0.00,,,0.00,meteobridge,2013-03-10 12:36:00,
2013-03-10 14:41:00,67.1,29.1,29.59,WNW,292,2.9,3.4,24,0.00,,,0.00,meteobridge,2013-03-10 12:41:00,
2013-03-10 14:46:00,67.1,30.2,29.59,NW,315,1.6,4.0,25,0.00,,,0.00,meteobridge,2013-03-10 12:46:00,
2013-03-10 14:51:00,66.9,30.0,29.59,SSE,158,2.9,3.6,25,0.00,,,0.00,meteobridge,2013-03-10 12:51:00,
2013-03-10 14:56:00,67.1,31.1,29.59,East,90,2.0,4.0,26,0.00,,,0.00,meteobridge,2013-03-10 12:56:00,
2013-03-10 15:01:00,67.1,31.1,29.59,ESE,112,1.6,2.2,26,0.00,,,0.00,meteobridge,2013-03-10 13:01:00,
2013-03-10 15:06:00,67.6,31.6,29.59,ESE,112,2.0,2.7,26,0.00,,,0.00,meteobridge,2013-03-10 13:06:00,
2013-03-10 15:11:00,69.6,32.4,29.59,NE,45,2.7,2.7,25,0.00,,,0.00,meteobridge,2013-03-10 13:11:00,
2013-03-10 15:16:00,68.9,30.7,29.59,South,180,2.2,2.9,24,0.00,,,0.00,meteobridge,2013-03-10 13:16:00,
2013-03-10 15:21:00,68.4,30.2,29.59,SSW,202,3.8,6.0,24,0.00,,,0.00,meteobridge,2013-03-10 13:21:00,
2013-03-10 15:27:00,68.9,30.7,29.59,NNW,338,1.3,2.2,24,0.00,,,0.00,meteobridge,2013-03-10 13:27:00,
2013-03-10 15:32:00,68.7,30.6,29.59,SSE,158,2.5,4.0,24,0.00,,,0.00,meteobridge,2013-03-10 13:32:00,
2013-03-10 15:37:00,68.5,30.4,29.59,East,90,1.6,2.9,24,0.00,,,0.00,meteobridge,2013-03-10 13:37:00,
2013-03-10 15:42:00,69.1,30.7,29.59,South,180,2.9,4.0,24,0.00,,,0.00,meteobridge,2013-03-10 13:42:00,
2013-03-10 15:47:00,68.7,30.6,29.59,NNE,22,2.5,5.4,24,0.00,,,0.00,meteobridge,2013-03-10 13:47:00,
2013-03-10 15:52:00,68.4,30.2,29.59,SSE,158,2.5,5.6,24,0.00,,,0.00,meteobridge,2013-03-10 13:52:00,
2013-03-10 15:57:00,69.8,31.5,29.59,ESE,112,1.3,7.2,24,0.00,,,0.00,meteobridge,2013-03-10 13:57:00,
2013-03-10 16:02:00,69.4,31.1,29.59,ESE,112,6.5,6.5,24,0.00,,,0.00,meteobridge,2013-03-10 14:02:00,
2013-03-10 16:08:00,-999.0,-99.9,29.59,North,-999,-999.0,-999.0,-999,0.00,,,0.00,meteobridge,2013-03-10 14:08:00,
2013-03-10 16:13:00,69.4,31.1,29.59,SSE,158,2.0,4.0,24,0.00,,,0.00,meteobridge,2013-03-10 14:13:00,
2013-03-10 16:18:00,69.4,31.1,29.59,NW,315,2.0,3.1,24,0.00,,,0.00,meteobridge,2013-03-10 14:18:00,
2013-03-10 16:24:00,-999.0,-99.9,29.59,North,-999,-999.0,-999.0,-999,0.00,,,0.00,meteobridge,2013-03-10 14:24:00,
2013-03-10 16:29:00,67.8,30.7,29.59,SSE,158,2.5,3.6,25,0.00,,,0.00,meteobridge,2013-03-10 14:29:00,
2013-03-10 16:34:00,67.3,31.3,29.59,ESE,112,1.3,4.3,26,0.00,,,0.00,meteobridge,2013-03-10 14:34:00,
2013-03-10 16:39:00,67.1,31.1,29.59,SSE,158,2.2,4.7,26,0.00,,,0.00,meteobridge,2013-03-10 14:39:00,
2013-03-10 16:44:00,66.7,30.7,29.59,East,90,2.2,2.2,26,0.00,,,0.00,meteobridge,2013-03-10 14:44:00,
2013-03-10 16:49:00,66.4,31.5,29.59,WNW,292,2.2,2.2,27,0.00,,,0.00,meteobridge,2013-03-10 14:49:00,
2013-03-10 16:54:00,66.2,31.3,29.59,SW,225,1.1,3.1,27,0.00,,,0.00,meteobridge,2013-03-10 14:54:00,
2013-03-10 16:59:00,66.2,32.2,29.59,NNE,22,2.0,3.4,28,0.00,,,0.00,meteobridge,2013-03-10 14:59:00,
2013-03-10 17:04:00,65.8,32.7,29.59,WSW,248,1.3,3.4,29,0.00,,,0.00,meteobridge,2013-03-10 15:04:00,
2013-03-10 17:09:00,65.8,32.7,29.59,ENE,68,3.1,4.0,29,0.00,,,0.00,meteobridge,2013-03-10 15:09:00,
2013-03-10 17:14:00,65.7,32.5,29.59,SSE,158,1.6,3.4,29,0.00,,,0.00,meteobridge,2013-03-10 15:14:00,
2013-03-10 17:19:00,65.7,32.5,29.59,SE,135,0.0,2.7,29,0.00,,,0.00,meteobridge,2013-03-10 15:19:00,
2013-03-10 17:24:00,65.5,32.4,29.59,SSE,158,0.0,1.6,29,0.00,,,0.00,meteobridge,2013-03-10 15:24:00,
2013-03-10 17:29:00,65.5,32.4,29.59,North,0,0.0,2.9,29,0.00,,,0.00,meteobridge,2013-03-10 15:29:00,
2013-03-10 17:34:00,65.3,32.4,29.59,SSE,158,1.1,2.7,29,0.00,,,0.00,meteobridge,2013-03-10 15:34:00,
2013-03-10 17:40:00,65.1,32.2,29.59,SSE,158,0.9,2.2,29,0.00,,,0.00,meteobridge,2013-03-10 15:40:00,
2013-03-10 17:45:00,65.1,32.2,29.59,SSE,158,1.3,3.4,29,0.00,,,0.00,meteobridge,2013-03-10 15:45:00,
2013-03-10 17:50:00,64.9,32.7,29.59,SSE,158,2.5,2.5,30,0.00,,,0.00,meteobridge,2013-03-10 15:50:00,
2013-03-10 17:55:00,64.8,32.7,29.59,NNE,22,1.3,1.3,30,0.00,,,0.00,meteobridge,2013-03-10 15:55:00,
2013-03-10 18:00:00,64.6,32.5,29.59,North,0,1.1,2.0,30,0.00,,,0.00,meteobridge,2013-03-10 16:00:00,
2013-03-10 18:05:00,64.4,33.1,29.59,North,0,1.3,1.3,31,0.00,,,0.00,meteobridge,2013-03-10 16:05:00,
2013-03-10 18:10:00,64.2,33.1,29.59,NNW,338,0.0,0.0,31,0.00,,,0.00,meteobridge,2013-03-10 16:10:00,
2013-03-10 18:15:00,64.0,33.6,29.59,NNW,338,0.0,0.0,32,0.00,,,0.00,meteobridge,2013-03-10 16:15:00,
2013-03-10 18:20:00,63.7,34.2,29.59,NNW,338,0.0,0.0,33,0.00,,,0.00,meteobridge,2013-03-10 16:20:00,
2013-03-10 18:25:00,63.5,34.0,29.59,NNW,338,1.3,1.3,33,0.00,,,0.00,meteobridge,2013-03-10 16:25:00,
2013-03-10 18:30:00,63.3,33.8,29.59,NNW,338,0.0,0.0,33,0.00,,,0.00,meteobridge,2013-03-10 16:30:00,
2013-03-10 18:35:00,63.1,34.3,29.59,North,0,0.0,0.9,34,0.00,,,0.00,meteobridge,2013-03-10 16:35:00,
2013-03-10 18:41:00,62.8,34.0,29.59,NNE,22,0.0,0.0,34,0.00,,,0.00,meteobridge,2013-03-10 16:41:00,
2013-03-10 18:45:00,62.6,33.8,29.59,NNE,22,2.0,2.0,34,0.00,,,0.00,meteobridge,2013-03-10 16:45:00,
2013-03-10 18:51:00,62.6,33.8,29.59,NNE,22,1.3,1.6,34,0.00,,,0.00,meteobridge,2013-03-10 16:51:00,
2013-03-10 18:56:00,62.4,34.5,29.59,NNE,22,1.6,1.6,35,0.00,,,0.00,meteobridge,2013-03-10 16:56:00,
2013-03-10 19:01:00,62.2,35.1,29.56,North,0,1.1,1.1,36,0.00,,,0.00,meteobridge,2013-03-10 17:01:00,
2013-03-10 19:06:00,62.1,34.9,29.56,North,0,0.0,0.0,36,0.00,,,0.00,meteobridge,2013-03-10 17:06:00,
2013-03-10 19:11:00,61.7,34.5,29.56,ENE,68,0.9,1.3,36,0.00,,,0.00,meteobridge,2013-03-10 17:11:00,
2013-03-10 19:16:00,61.5,35.1,29.56,NNE,22,1.3,1.6,37,0.00,,,0.00,meteobridge,2013-03-10 17:16:00,
2013-03-10 19:22:00,61.3,34.9,29.56,NNE,22,0.9,0.9,37,0.00,,,0.00,meteobridge,2013-03-10 17:22:00,
2013-03-10 19:27:00,61.2,35.4,29.59,NNE,22,0.0,0.0,38,0.00,,,0.00,meteobridge,2013-03-10 17:27:00,
2013-03-10 19:32:00,61.0,35.2,29.59,ENE,68,0.0,1.3,38,0.00,,,0.00,meteobridge,2013-03-10 17:32:00,
2013-03-10 19:38:00,60.8,35.1,29.59,ENE,68,0.0,0.0,38,0.00,,,0.00,meteobridge,2013-03-10 17:38:00,
2013-03-10 19:43:00,60.8,35.8,29.59,NNE,22,0.0,1.1,39,0.00,,,0.00,meteobridge,2013-03-10 17:43:00,
2013-03-10 19:48:00,60.6,36.1,29.59,East,90,0.0,1.1,40,0.00,,,0.00,meteobridge,2013-03-10 17:48:00,
2013-03-10 19:54:00,60.6,36.1,29.59,SE,135,0.0,2.0,40,0.00,,,0.00,meteobridge,2013-03-10 17:54:00,
2013-03-10 19:59:00,60.6,36.1,29.59,North,0,1.3,1.6,40,0.00,,,0.00,meteobridge,2013-03-10 17:59:00,
2013-03-10 20:04:00,60.6,36.9,29.59,North,0,0.0,1.3,41,0.00,,,0.00,meteobridge,2013-03-10 18:04:00,
2013-03-10 20:09:00,60.3,36.5,29.59,North,0,0.0,0.0,41,0.00,,,0.00,meteobridge,2013-03-10 18:09:00,
2013-03-10 20:14:00,60.1,36.3,29.59,North,0,0.0,0.0,41,0.00,,,0.00,meteobridge,2013-03-10 18:14:00,
2013-03-10 20:19:00,59.9,36.9,29.59,NNE,22,0.0,0.0,42,0.00,,,0.00,meteobridge,2013-03-10 18:19:00,
2013-03-10 20:25:00,59.7,37.2,29.59,NNE,22,0.0,0.0,43,0.00,,,0.00,meteobridge,2013-03-10 18:25:00,
2013-03-10 20:30:00,59.4,36.9,29.59,NNE,22,0.0,0.0,43,0.00,,,0.00,meteobridge,2013-03-10 18:30:00,
2013-03-10 20:36:00,59.2,36.7,29.59,NNE,22,0.0,0.0,43,0.00,,,0.00,meteobridge,2013-03-10 18:36:00,
2013-03-10 20:41:00,59.2,36.7,29.59,NNE,22,0.0,0.0,43,0.00,,,0.00,meteobridge,2013-03-10 18:41:00,
2013-03-10 20:47:00,59.2,37.4,29.59,NNE,22,0.0,0.0,44,-99.99,,,0.00,meteobridge,2013-03-10 18:47:00,
2013-03-10 20:52:00,59.2,37.9,29.59,NNE,22,0.0,0.0,45,-99.99,,,0.00,meteobridge,2013-03-10 18:52:00,
2013-03-10 20:57:00,59.2,37.9,29.59,NNE,22,0.0,0.0,45,0.00,,,0.00,meteobridge,2013-03-10 18:57:00,
2013-03-10 21:03:00,59.2,37.9,29.59,NNE,22,0.0,0.0,45,0.00,,,0.00,meteobridge,2013-03-10 19:03:00,
2013-03-10 21:08:00,59.2,37.9,29.59,NNE,22,0.0,0.0,45,0.00,,,0.00,meteobridge,2013-03-10 19:08:00,
2013-03-10 21:13:00,59.0,38.3,29.59,NNE,22,0.0,0.0,46,0.00,,,0.00,meteobridge,2013-03-10 19:13:00,
2013-03-10 21:18:00,58.8,38.7,29.59,NE,45,0.0,0.0,47,0.00,,,0.00,meteobridge,2013-03-10 19:18:00,
2013-03-10 21:23:00,58.8,38.7,29.59,NE,45,0.0,0.0,47,0.00,,,0.00,meteobridge,2013-03-10 19:23:00,
2013-03-10 21:28:00,58.6,38.5,29.59,NE,45,0.0,0.0,47,0.00,,,0.00,meteobridge,2013-03-10 19:28:00,
2013-03-10 21:34:00,58.5,38.3,29.59,NNE,22,0.0,0.0,47,0.00,,,0.00,meteobridge,2013-03-10 19:34:00,
2013-03-10 21:39:00,58.5,38.8,29.59,NNE,22,0.0,0.0,48,0.00,,,0.00,meteobridge,2013-03-10 19:39:00,
2013-03-10 21:44:00,58.3,38.7,29.59,NNE,22,0.0,0.0,48,0.00,,,0.00,meteobridge,2013-03-10 19:44:00,
2013-03-10 21:49:00,58.1,38.5,29.59,NNE,22,0.0,0.0,48,0.00,,,0.00,meteobridge,2013-03-10 19:49:00,
2013-03-10 21:54:00,57.9,38.3,29.59,NNE,22,0.0,0.0,48,0.00,,,0.00,meteobridge,2013-03-10 19:54:00,
2013-03-10 22:00:00,57.9,38.3,29.59,NNE,22,0.0,0.0,48,0.00,,,0.00,meteobridge,2013-03-10 20:00:00,
2013-03-10 22:05:00,57.9,38.8,29.59,NNE,22,0.0,0.0,49,0.00,,,0.00,meteobridge,2013-03-10 20:05:00,
2013-03-10 22:10:00,57.9,38.8,29.59,NNE,22,0.0,0.0,49,0.00,,,0.00,meteobridge,2013-03-10 20:10:00,
2013-03-10 22:15:00,57.9,38.8,29.56,NNE,22,0.9,2.0,49,0.00,,,0.00,meteobridge,2013-03-10 20:15:00,
2013-03-10 22:21:00,57.9,39.4,29.56,North,0,1.6,2.5,50,0.00,,,0.00,meteobridge,2013-03-10 20:21:00,
2013-03-10 22:26:00,57.9,39.4,29.56,North,0,0.0,0.0,50,0.00,,,0.00,meteobridge,2013-03-10 20:26:00,
2013-03-10 22:31:00,57.7,39.2,29.56,NNE,22,0.0,1.1,50,0.00,,,0.00,meteobridge,2013-03-10 20:31:00,
2013-03-10 22:36:00,57.7,39.2,29.56,NNE,22,1.6,1.6,50,0.00,,,0.00,meteobridge,2013-03-10 20:36:00,
2013-03-10 22:42:00,57.7,39.2,29.56,East,90,0.0,0.0,50,0.00,,,0.00,meteobridge,2013-03-10 20:42:00,
2013-03-10 22:47:00,57.9,39.9,29.56,ENE,68,0.0,1.1,51,0.00,,,0.00,meteobridge,2013-03-10 20:47:00,
2013-03-10 22:52:00,57.7,39.7,29.56,NE,45,1.3,2.0,51,0.00,,,0.00,meteobridge,2013-03-10 20:52:00,
2013-03-10 22:57:00,57.7,39.7,29.56,NNE,22,0.0,0.0,51,0.00,,,0.00,meteobridge,2013-03-10 20:57:00,
2013-03-10 23:02:00,57.7,39.7,29.56,NNE,22,0.0,0.0,51,0.00,,,0.00,meteobridge,2013-03-10 21:02:00,
2013-03-10 23:07:00,57.6,39.6,29.56,NNE,22,0.0,0.0,51,0.00,,,0.00,meteobridge,2013-03-10 21:07:00,
2013-03-10 23:13:00,57.4,39.4,29.59,NNE,22,0.0,0.0,51,0.00,,,0.00,meteobridge,2013-03-10 21:13:00,
2013-03-10 23:18:00,57.4,39.4,29.59,NNE,22,0.0,0.0,51,0.00,,,0.00,meteobridge,2013-03-10 21:18:00,
2013-03-10 23:23:00,57.0,39.0,29.59,NNE,22,0.0,0.0,51,0.00,,,0.00,meteobridge,2013-03-10 21:23:00,
2013-03-10 23:28:00,57.0,39.6,29.56,NNE,22,0.0,0.0,52,0.00,,,0.00,meteobridge,2013-03-10 21:28:00,
2013-03-10 23:33:00,56.8,39.4,29.56,NNE,22,0.0,0.0,52,0.00,,,0.00,meteobridge,2013-03-10 21:33:00,
2013-03-10 23:38:00,56.8,39.4,29.56,NNE,22,0.0,0.0,52,0.00,,,0.00,meteobridge,2013-03-10 21:38:00,
2013-03-10 23:43:00,56.8,39.4,29.56,NNE,22,0.0,0.0,52,0.00,,,0.00,meteobridge,2013-03-10 21:43:00,
2013-03-10 23:48:00,56.8,39.4,29.56,NNE,22,0.0,0.0,52,0.00,,,0.00,meteobridge,2013-03-10 21:48:00,
2013-03-10 23:53:00,56.7,39.7,29.56,NNE,22,0.0,0.0,53,0.00,,,0.00,meteobridge,2013-03-10 21:53:00,
2013-03-10 23:58:00,56.7,39.7,29.53,NNE,22,0.0,0.0,53,0.00,,,0.00,meteobridge,2013-03-10 21:58:00,